ITY1785 LIRF-LICJ

Flight info

Callsign ITY1785
Flight time 0h 50m
Altitude 33000
Route PEPIX DCT UNIXO DCT DORAS DCT LURON
Aircraft A20N/M-SDE2E3FGHIRWXY/LB1

Departure

Time 2026-02-18 21:47
Airport Rome–Fiumicino Leonardo da Vinci International Airport (LIRF)

Arrival

Time 2026-02-18 22:38
Airport Falcone–Borsellino Airport (LICJ)
Time Latitude Longitude Altitude Speed Heading
2026-02-18 21:12 41.79593 12.25765 19 ft 0 kts 116°
2026-02-18 21:32 41.79597 12.25755 20 ft 2 kts 115°
2026-02-18 21:32 41.79604 12.25736 20 ft 2 kts 116°
2026-02-18 21:32 41.79609 12.25722 20 ft 0 kts 115°
2026-02-18 21:32 41.79612 12.25710 20 ft 1 kts 75°
2026-02-18 21:33 41.79601 12.25696 20 ft 1 kts 23°
2026-02-18 21:33 41.79599 12.25695 20 ft 0 kts 24°
2026-02-18 21:36 41.79604 12.25698 19 ft 1 kts 24°
2026-02-18 21:36 41.79644 12.25723 19 ft 9 kts 25°
2026-02-18 21:37 41.79785 12.25813 19 ft 13 kts 25°
2026-02-18 21:37 41.79859 12.25828 18 ft 11 kts 355°
2026-02-18 21:37 41.79938 12.25864 18 ft 12 kts 25°
2026-02-18 21:38 41.80024 12.25917 17 ft 14 kts 25°
2026-02-18 21:38 41.80120 12.25977 16 ft 16 kts 25°
2026-02-18 21:38 41.80224 12.26041 16 ft 17 kts 24°
2026-02-18 21:38 41.80334 12.26109 15 ft 17 kts 25°
2026-02-18 21:39 41.80451 12.26175 15 ft 18 kts 12°
2026-02-18 21:39 41.80539 12.26287 14 ft 18 kts 68°
2026-02-18 21:39 41.80585 12.26455 13 ft 19 kts 70°
2026-02-18 21:39 41.80632 12.26628 12 ft 20 kts 69°
2026-02-18 21:40 41.80678 12.26791 12 ft 14 kts 69°
2026-02-18 21:40 41.80712 12.26913 11 ft 12 kts 70°
2026-02-18 21:40 41.80745 12.27020 10 ft 10 kts 49°
2026-02-18 21:40 41.80814 12.27036 10 ft 10 kts 343°
2026-02-18 21:41 41.80879 12.27006 10 ft 0 kts 338°
2026-02-18 21:45 41.80883 12.27004 10 ft 3 kts 338°
2026-02-18 21:45 41.80924 12.26982 10 ft 8 kts 338°
2026-02-18 21:45 41.80955 12.26923 11 ft 8 kts 261°
2026-02-18 21:46 41.80945 12.26883 11 ft 3 kts 250°
2026-02-18 21:46 41.80937 12.26854 11 ft 3 kts 249°
2026-02-18 21:46 41.80902 12.26730 12 ft 45 kts 249°
2026-02-18 21:46 41.80696 12.25981 16 ft 123 kts 249°
2026-02-18 21:47 41.80365 12.24700 397 ft 152 kts 248°
2026-02-18 21:47 41.80022 12.23388 1173 ft 153 kts 245°
2026-02-18 21:47 41.79629 12.22133 2033 ft 150 kts 243°
2026-02-18 21:47 41.79148 12.20938 2846 ft 147 kts 227°
2026-02-18 21:48 41.78405 12.20043 3606 ft 149 kts 220°
2026-02-18 21:48 41.77542 12.19109 4044 ft 175 kts 219°
2026-02-18 21:48 41.76541 12.18005 4011 ft 192 kts 221°
2026-02-18 21:48 41.75494 12.16865 3974 ft 195 kts 210°
2026-02-18 21:49 41.72508 12.16827 4025 ft 244 kts 179°
2026-02-18 21:49 41.70829 12.16916 4147 ft 244 kts 180°
2026-02-18 21:49 41.69130 12.17036 4063 ft 243 kts 179°
2026-02-18 21:50 41.67425 12.17106 4034 ft 242 kts 182°
2026-02-18 21:50 41.65732 12.17141 4344 ft 245 kts 180°
2026-02-18 21:50 41.64057 12.17258 5315 ft 245 kts 179°
2026-02-18 21:50 41.62351 12.17403 6175 ft 252 kts 180°
2026-02-18 21:51 41.60582 12.17516 7005 ft 260 kts 182°
2026-02-18 21:51 41.58787 12.17578 7984 ft 261 kts 183°
2026-02-18 21:51 41.56981 12.17650 8921 ft 263 kts 182°
2026-02-18 21:51 41.55155 12.17600 9608 ft 270 kts 191°
2026-02-18 21:52 41.53299 12.17204 10402 ft 273 kts 195°
2026-02-18 21:52 41.51437 12.16723 11226 ft 278 kts 197°
2026-02-18 21:52 41.49524 12.16219 12066 ft 281 kts 197°
2026-02-18 21:52 41.47597 12.15726 12894 ft 284 kts 197°
2026-02-18 21:53 41.43684 12.14745 14424 ft 292 kts 197°
2026-02-18 21:53 41.41707 12.14259 15152 ft 295 kts 197°
2026-02-18 21:53 41.39680 12.13761 15888 ft 300 kts 197°
2026-02-18 21:54 41.37613 12.13257 16619 ft 304 kts 197°
2026-02-18 21:54 41.35530 12.12750 17330 ft 309 kts 198°
2026-02-18 21:54 41.33402 12.12311 18025 ft 317 kts 191°
2026-02-18 21:54 41.31167 12.12439 18713 ft 330 kts 177°
2026-02-18 21:55 41.28914 12.13203 19378 ft 340 kts 168°
2026-02-18 21:55 41.26655 12.14192 20054 ft 345 kts 167°
2026-02-18 21:55 41.24389 12.15212 20716 ft 348 kts 167°
2026-02-18 21:55 41.22076 12.16234 21393 ft 352 kts 167°
2026-02-18 21:56 41.19737 12.17248 22058 ft 355 kts 168°
2026-02-18 21:56 41.17422 12.18313 22698 ft 362 kts 161°
2026-02-18 21:56 41.15183 12.19967 23336 ft 372 kts 148°
2026-02-18 21:56 41.13193 12.22213 23963 ft 379 kts 140°
2026-02-18 21:57 41.09444 12.27138 25247 ft 385 kts 138°
2026-02-18 21:57 41.07535 12.29658 25823 ft 388 kts 138°
2026-02-18 21:57 41.05623 12.32156 26392 ft 392 kts 138°
2026-02-18 21:58 41.03667 12.34693 26974 ft 395 kts 138°
2026-02-18 21:58 41.01700 12.37231 27572 ft 397 kts 138°
2026-02-18 21:58 40.99722 12.39775 28111 ft 399 kts 138°
2026-02-18 21:58 40.97731 12.42331 28619 ft 401 kts 137°
2026-02-18 21:59 40.95726 12.44904 29106 ft 404 kts 137°
2026-02-18 21:59 40.93698 12.47503 29591 ft 407 kts 137°
2026-02-18 21:59 40.91683 12.50085 30033 ft 410 kts 137°
2026-02-18 21:59 40.89636 12.52707 30470 ft 411 kts 138°
2026-02-18 22:00 40.87586 12.55321 30831 ft 413 kts 137°
2026-02-18 22:00 40.85513 12.57964 31176 ft 417 kts 137°
2026-02-18 22:00 40.83405 12.60655 31582 ft 419 kts 137°
2026-02-18 22:00 40.81271 12.63203 31950 ft 420 kts 143°
2026-02-18 22:01 40.76429 12.67458 32625 ft 420 kts 156°
2026-02-18 22:01 40.73763 12.69081 32961 ft 420 kts 162°
2026-02-18 22:02 40.68198 12.71284 33023 ft 416 kts 171°
2026-02-18 22:02 40.62599 12.73051 33040 ft 417 kts 171°
2026-02-18 22:03 40.56951 12.74857 33022 ft 416 kts 171°
2026-02-18 22:03 40.51340 12.76679 33049 ft 416 kts 171°
2026-02-18 22:04 40.45725 12.78494 33031 ft 417 kts 171°
2026-02-18 22:04 40.40110 12.80312 33029 ft 417 kts 171°
2026-02-18 22:05 40.31685 12.83029 33035 ft 416 kts 171°
2026-02-18 22:05 40.26058 12.84840 33037 ft 417 kts 171°
2026-02-18 22:06 40.20432 12.86651 33058 ft 417 kts 171°
2026-02-18 22:06 40.14814 12.88457 33060 ft 417 kts 171°
2026-02-18 22:07 40.09159 12.90277 33049 ft 417 kts 171°
2026-02-18 22:07 40.03560 12.92074 33039 ft 416 kts 172°
2026-02-18 22:08 39.97905 12.93883 33074 ft 417 kts 172°
2026-02-18 22:08 39.95129 12.94769 32907 ft 412 kts 172°
2026-02-18 22:08 39.92355 12.95656 32446 ft 410 kts 171°
2026-02-18 22:09 39.86838 12.97416 31461 ft 407 kts 171°
2026-02-18 22:09 39.84120 12.98286 31007 ft 404 kts 171°
2026-02-18 22:09 39.81405 12.99153 30535 ft 402 kts 172°
2026-02-18 22:10 39.78698 13.00013 30060 ft 399 kts 171°
2026-02-18 22:10 39.75991 13.00874 29589 ft 397 kts 172°
2026-02-18 22:10 39.73335 13.01720 29138 ft 394 kts 171°
2026-02-18 22:10 39.70705 13.02558 28688 ft 391 kts 172°
2026-02-18 22:11 39.68071 13.03394 28206 ft 389 kts 171°
2026-02-18 22:11 39.65443 13.04231 27729 ft 387 kts 172°
2026-02-18 22:11 39.62840 13.05050 27316 ft 383 kts 173°
2026-02-18 22:11 39.60251 13.05714 26888 ft 377 kts 176°
2026-02-18 22:12 39.57659 13.06151 26463 ft 372 kts 181°
2026-02-18 22:12 39.55109 13.06382 26028 ft 368 kts 183°
2026-02-18 22:12 39.52556 13.06569 25597 ft 365 kts 183°
2026-02-18 22:12 39.50057 13.06749 25145 ft 364 kts 183°
2026-02-18 22:13 39.45027 13.07124 24274 ft 359 kts 183°
2026-02-18 22:13 39.42569 13.07306 23829 ft 357 kts 182°
2026-02-18 22:13 39.40083 13.07493 23419 ft 354 kts 182°
2026-02-18 22:14 39.37652 13.07676 23007 ft 352 kts 182°
2026-02-18 22:14 39.35224 13.07860 22596 ft 350 kts 182°
2026-02-18 22:14 39.32785 13.08047 22192 ft 348 kts 183°
2026-02-18 22:14 39.30403 13.08227 21790 ft 345 kts 183°
2026-02-18 22:15 39.27999 13.08407 21374 ft 343 kts 182°
2026-02-18 22:15 39.25644 13.08585 20966 ft 342 kts 183°
2026-02-18 22:15 39.23253 13.08766 20557 ft 340 kts 182°
2026-02-18 22:15 39.20920 13.08942 20163 ft 338 kts 182°
2026-02-18 22:16 39.18588 13.09117 19770 ft 336 kts 182°
2026-02-18 22:16 39.16244 13.09294 19350 ft 335 kts 182°
2026-02-18 22:16 39.13911 13.09469 18953 ft 333 kts 182°
2026-02-18 22:16 39.11637 13.09643 18579 ft 331 kts 183°
2026-02-18 22:17 39.07064 13.09988 17804 ft 327 kts 183°
2026-02-18 22:17 39.04775 13.10160 17428 ft 325 kts 183°
2026-02-18 22:17 39.02551 13.10327 17070 ft 323 kts 182°
2026-02-18 22:18 39.00300 13.10496 16686 ft 322 kts 183°
2026-02-18 22:18 38.98080 13.10662 16312 ft 320 kts 182°
2026-02-18 22:18 38.95851 13.10831 15939 ft 318 kts 183°
2026-02-18 22:18 38.93682 13.10995 15589 ft 316 kts 182°
2026-02-18 22:19 38.91493 13.11159 15227 ft 314 kts 183°
2026-02-18 22:19 38.89307 13.11323 14857 ft 312 kts 183°
2026-02-18 22:19 38.87160 13.11519 14477 ft 311 kts 180°
2026-02-18 22:19 38.85013 13.11923 14046 ft 311 kts 174°
2026-02-18 22:20 38.82899 13.12561 13611 ft 313 kts 170°
2026-02-18 22:20 38.80977 13.13228 13249 ft 309 kts 169°
2026-02-18 22:20 38.78911 13.13956 12855 ft 306 kts 169°
2026-02-18 22:20 38.76874 13.14672 12401 ft 306 kts 169°
2026-02-18 22:21 38.72794 13.16085 11583 ft 301 kts 169°
2026-02-18 22:21 38.70802 13.16769 11178 ft 298 kts 169°
2026-02-18 22:21 38.68790 13.17460 10775 ft 296 kts 169°
2026-02-18 22:22 38.66806 13.18140 10382 ft 293 kts 169°
2026-02-18 22:22 38.64873 13.18807 10123 ft 290 kts 169°
2026-02-18 22:22 38.62908 13.19482 10113 ft 292 kts 168°
2026-02-18 22:22 38.60945 13.20164 10114 ft 292 kts 169°
2026-02-18 22:23 38.58973 13.20843 10113 ft 292 kts 169°
2026-02-18 22:23 38.56997 13.21515 10108 ft 292 kts 169°
2026-02-18 22:23 38.55050 13.22192 10116 ft 294 kts 166°
2026-02-18 22:23 38.53126 13.23091 10121 ft 295 kts 161°
2026-02-18 22:24 38.51215 13.24113 10120 ft 296 kts 160°
2026-02-18 22:24 38.49402 13.25104 10119 ft 295 kts 160°
2026-02-18 22:24 38.47572 13.26092 10089 ft 295 kts 162°
2026-02-18 22:24 38.45627 13.26522 10109 ft 273 kts 193°
2026-02-18 22:25 38.43402 13.24569 10092 ft 217 kts 256°
2026-02-18 22:25 38.43221 13.23425 10107 ft 210 kts 269°
2026-02-18 22:25 38.43115 13.21997 10117 ft 210 kts 264°
2026-02-18 22:26 38.42808 13.20166 10132 ft 213 kts 255°
2026-02-18 22:26 38.41954 13.18628 10080 ft 226 kts 217°
2026-02-18 22:26 38.40395 13.18125 10103 ft 243 kts 177°
2026-02-18 22:26 38.38759 13.18801 10121 ft 251 kts 158°
2026-02-18 22:27 38.37215 13.19827 10141 ft 252 kts 155°
2026-02-18 22:27 38.35657 13.20853 10119 ft 251 kts 158°
2026-02-18 22:27 38.34153 13.21992 10141 ft 255 kts 137°
2026-02-18 22:27 38.33284 13.23946 10110 ft 256 kts 96°
2026-02-18 22:28 38.33475 13.26111 10134 ft 247 kts 61°
2026-02-18 22:28 38.34287 13.28012 10050 ft 240 kts 53°
2026-02-18 22:28 38.35132 13.29822 9669 ft 243 kts 56°
2026-02-18 22:28 38.35925 13.31733 9368 ft 244 kts 59°
2026-02-18 22:29 38.37333 13.35651 8718 ft 244 kts 62°
2026-02-18 22:29 38.37992 13.37633 8451 ft 242 kts 62°
2026-02-18 22:29 38.38625 13.39615 8135 ft 242 kts 71°
2026-02-18 22:30 38.38640 13.41716 7853 ft 245 kts 112°
2026-02-18 22:30 38.37615 13.43374 7559 ft 237 kts 152°
2026-02-18 22:30 38.36072 13.44059 6960 ft 244 kts 171°
2026-02-18 22:30 38.34377 13.44493 6257 ft 253 kts 172°
2026-02-18 22:31 38.32645 13.44976 5560 ft 258 kts 169°
2026-02-18 22:31 38.30915 13.45461 4975 ft 251 kts 180°
2026-02-18 22:31 38.29288 13.44975 4376 ft 238 kts 217°
2026-02-18 22:31 38.28312 13.43370 3825 ft 231 kts 252°
2026-02-18 22:32 38.27956 13.41453 3646 ft 222 kts 256°
2026-02-18 22:32 38.27558 13.39592 3492 ft 213 kts 252°
2026-02-18 22:32 38.27088 13.37833 3314 ft 205 kts 250°
2026-02-18 22:32 38.26591 13.36168 3132 ft 197 kts 248°
2026-02-18 22:33 38.25576 13.32975 2998 ft 196 kts 248°
2026-02-18 22:33 38.25077 13.31369 2992 ft 197 kts 248°
2026-02-18 22:33 38.24564 13.29769 3088 ft 188 kts 247°
2026-02-18 22:34 38.24070 13.28283 2842 ft 182 kts 246°
2026-02-18 22:34 38.23572 13.26814 2569 ft 177 kts 245°
2026-02-18 22:34 38.23096 13.25414 2316 ft 172 kts 245°
2026-02-18 22:34 38.22626 13.24034 2080 ft 166 kts 244°
2026-02-18 22:35 38.22182 13.22719 1849 ft 160 kts 244°
2026-02-18 22:35 38.21752 13.21445 1641 ft 153 kts 243°
2026-02-18 22:35 38.21346 13.20238 1442 ft 143 kts 243°
2026-02-18 22:35 38.20969 13.19122 1259 ft 136 kts 243°
2026-02-18 22:36 38.20594 13.18020 1092 ft 136 kts 243°
2026-02-18 22:36 38.20217 13.16905 917 ft 136 kts 243°
2026-02-18 22:36 38.19848 13.15811 739 ft 136 kts 243°
2026-02-18 22:36 38.19475 13.14704 556 ft 136 kts 242°
2026-02-18 22:37 38.18744 13.12519 235 ft 132 kts 243°
2026-02-18 22:37 38.18383 13.11468 91 ft 125 kts 242°
2026-02-18 22:38 38.18014 13.10372 78 ft 18 kts 258°
2026-02-18 22:38 38.18019 13.10220 73 ft 18 kts 278°
2026-02-18 22:38 38.18032 13.10078 66 ft 12 kts 277°
2026-02-18 22:39 38.18044 13.09952 60 ft 12 kts 279°
2026-02-18 22:39 38.18090 13.09864 56 ft 6 kts 336°
2026-02-18 22:39 38.18126 13.09883 55 ft 6 kts 68°
2026-02-18 22:39 38.18145 13.09936 56 ft 8 kts 64°
2026-02-18 22:40 38.18207 13.10109 60 ft 10 kts 68°
2026-02-18 22:40 38.18233 13.10191 62 ft 9 kts 68°
2026-02-18 22:40 38.18259 13.10274 63 ft 10 kts 69°
2026-02-18 22:41 38.18324 13.10456 65 ft 10 kts 49°
2026-02-18 22:41 38.18390 13.10500 66 ft 11 kts 20°
2026-02-18 22:41 38.18447 13.10548 67 ft 7 kts 57°
2026-02-18 22:42 38.18470 13.10610 67 ft 7 kts 66°
2026-02-18 22:42 38.18491 13.10671 68 ft 5 kts 65°
2026-02-18 22:42 38.18525 13.10685 68 ft 7 kts 340°
2026-02-18 22:42 38.18548 13.10673 66 ft 3 kts 337°
2026-02-18 22:43 38.18569 13.10662 65 ft 0 kts 336°